Torna al catalogo

COSMOS 624

AttivoMilitareLEO
NORAD 6992·PAYLOAD·🇷🇺 Russia

Lanciato Dec 19, 1973 da Plesetsk Cosmodrome

Loading…

Prossimi Passaggi (prossime 24 ore)

TLE

AggiornatoSource: Space-Track

Epoca: Sep 14, 2026, 08:22 UTC

1 06992U 73104H   26257.34869890 -.00000024  00000-0 -44958-4 0  9992
2 06992  74.0315  26.4609 0085635  63.2944 324.4688 12.61292377428133

Traccia COSMOS 624 in tempo reale con AllMySat

Download on the App Store